sat.trackr.live / text

‹ back to catalog

STARLINK-37302

NORAD 68669 · 2026-077H

PAYLOAD ACTIVE UNKNOWN

§ Identity

Operator
Country
US
Launch date
2026-04-11
Launch site
AFWTR
Launch vehicle
Mass (kg)
RCS (m²)

Purposes: comms

External: N2YO · Heavens-Above · Gunter

§ Orbital elements

Epoch: 2026-05-25T03:25:06.198240Z

Period
93.91 min
Inclination
97.2852°
Eccentricity
0.0001131
Mean motion
15.33455153 rev/d
Perigee alt
464.7 km
Apogee alt
466.3 km
Semi-major
6,843.6 km
B*
5.1142e-4
RAAN
16.7031°
Arg perigee
95.0194°
Mean anomaly
265.1178°
Rev number
687

§ Raw data

STARLINK-373021 68669U 26077H   26145.14243285  .00016477  00000+0  51142-3 0  99942 68669  97.2852  16.7031 0001131  95.0194 265.1178 15.33455153  6878

JSON: /api/v1/satellites/68669 · /tle

For live sub-satellite position, see the globe view (requires WebGL).

§ Visibility from observer

Set your observer location to see the next 7 days of passes ≥ 10°. The values pass through the URL so the page stays shareable.

No JS? Fill the form by hand. The geolocation button needs JavaScript.